Miscellaneous Local Product
Issued by NWS Hastings, NE

Home | Current Version | Previous Version | Graphics & Text | Print | Product List | Glossary On
Versions: 1 2 3 4 5 6 7 8 9 10 11 12 13 14 15 16 17 18 19 20 21 22 23 24 25 26 27 28 29 30 31 32 33 34 35 36 37 38 39 40 41 42 43 44 45 46 47 48 49 50
000
AXUS43 KGID 292002
MISGRI

GID CWA HOURLY WEATHER ROUNDUP
NATIONAL WEATHER SERVICE HASTINGS NE
300 PM CDT TUE JUL 29 2014

NOTE: "FAIR" INDICATES FEW OR NO CLOUDS BELOW 12,000 FEET WITH NO
SIGNIFICANT WEATHER AND/OR OBSTRUCTIONS TO VISIBILITY.

...SOUTH CENTRAL NEBRASKA...

CITY           SKY/WX    TMP DP  RH WIND       PRES   REMARKS
GRAND ISLAND   PTSUNNY   76  55  48 NE5       30.20F
HASTINGS       MOSUNNY   77  56  48 VRB5      30.19F
KEARNEY        MOSUNNY   79  55  44 E9        30.19F
ORD            MOSUNNY   77  57  50 SE6       30.19F
YORK           MOSUNNY   75  55  50 N8        30.20F
AURORA         PTSUNNY   77  57  50 CALM      30.20S
LEXINGTON      SUNNY     79  59  50 S5G10     30.19F
HOLDREGE       SUNNY     79  56  46 E8        30.18F
HEBRON         PTSUNNY   78  54  42 N6        30.18F

...NEBRASKA PANHANDLE...

CITY           SKY/WX    TMP DP  RH WIND       PRES   REMARKS
CHADRON        PTSUNNY   72  59  63 NE21G26   30.24F
ALLIANCE       PTSUNNY   81  57  43 E7        30.20F
SCOTTSBLUFF    MOSUNNY   81  62  52 E8        30.20F
SIDNEY         MOSUNNY   83  57  41 E10       30.20F

...WESTERN AND NORTH CENTRAL NEBRASKA...

CITY           SKY/WX    TMP DP  RH WIND       PRES   REMARKS
VALENTINE      CLOUDY    77  52  41 VRB3      30.22R
AINSWORTH      CLOUDY    74  53  47 NE5       30.22S
ONEILL         CLOUDY    78  48  34 W6        30.21S
BROKEN BOW     PTSUNNY   78  59  51 SE5       30.20F
IMPERIAL       MOSUNNY   83  59  44 SE12      30.16F
NORTH PLATTE   MOSUNNY   80  59  48 E12       30.17F
MCCOOK         MOSUNNY   84  59  42 E13G18    30.15F

...EASTERN NEBRASKA...

CITY           SKY/WX    TMP DP  RH WIND       PRES   REMARKS
NORFOLK        MOSUNNY   76  52  43 MISG      30.19F
SO SIOUX CITY  PTSUNNY   76  54  46 N8        30.18F
TEKAMAH        MOSUNNY   79  53  40 N7        30.17F
ALBION         CLOUDY    74  54  48 SE5       30.20S
OMAHA EPPLEY   PTSUNNY   79  52  38 N6        30.17F
OFFUTT AFB     MOSUNNY   78  55  44 NE7       30.17F
MILLARD        PTSUNNY   76  56  48 N5        30.17S
LINCOLN        PTSUNNY   82  51  34 NE7       30.18F
NEBRASKA CITY  PTSUNNY   78  54  43 NE6       30.16F
BEATRICE       PTSUNNY   79  57  47 CALM      30.17F
FALLS CITY     MOSUNNY   81  56  42 NE5       30.15F

...NORTHERN KANSAS...

CITY           SKY/WX    TMP DP  RH WIND       PRES   REMARKS
GOODLAND       MOSUNNY   86  60  41 SE14G22   30.15F
HILL CITY      CLOUDY    85  58  39 VRB3      30.13F
NORTON         PTCLDY    88  52  29 SE12G18   30.14F
PHILLIPSBURG   MOSUNNY   84  54  34 NE15      30.15F
SMITH CENTER   MOSUNNY   81  54  39 E12       30.16F
HAYS           SUNNY     88  57  35 S10G16    30.13F
RUSSELL        PTSUNNY   85  58  39 SE5       30.12F
CONCORDIA      MOSUNNY   79  61  53 NE9       30.17F
SALINA         MOSUNNY   86  57  37 E14       30.14F
TOPEKA         MOSUNNY   83  58  42 W7        30.15F



USA.gov is the U.S. government's official web portal to all federal, state and local government web resources and services.